AZV1920 UNWW-UOOO

Flight info

Callsign AZV1920
Flight time 2h 20m
Altitude 36000
Route AGERU1L AGERU G489 THN G490 OLURI OLURI1F
Aircraft B739/M-SDE2E3FGHIRWXY/LB1

Departure

Time 2026-05-05 13:09
Airport Spichenkovo Airport (UNWW)

Arrival

Time 2026-05-05 15:30
Airport Alykel International Airport (UOOO)
Time Latitude Longitude Altitude Speed Heading
2026-05-05 12:42 53.80564 86.86687 1020 ft 0 kts 289°
2026-05-05 13:01 53.80561 86.86701 1020 ft 2 kts 289°
2026-05-05 13:01 53.80557 86.86725 1021 ft 2 kts 289°
2026-05-05 13:01 53.80553 86.86741 1022 ft 1 kts 289°
2026-05-05 13:01 53.80551 86.86766 1022 ft 2 kts 261°
2026-05-05 13:02 53.80556 86.86790 1022 ft 2 kts 236°
2026-05-05 13:02 53.80567 86.86808 1022 ft 2 kts 210°
2026-05-05 13:02 53.80573 86.86813 1021 ft 1 kts 197°
2026-05-05 13:02 53.80577 86.86815 1021 ft 0 kts 200°
2026-05-05 13:05 53.80573 86.86813 1021 ft 1 kts 200°
2026-05-05 13:06 53.80530 86.86784 1022 ft 8 kts 201°
2026-05-05 13:06 53.80472 86.86747 1022 ft 12 kts 200°
2026-05-05 13:06 53.80376 86.86691 1020 ft 12 kts 199°
2026-05-05 13:06 53.80307 86.86744 1015 ft 13 kts 112°
2026-05-05 13:07 53.80290 86.86824 1012 ft 2 kts 109°
2026-05-05 13:07 53.80280 86.86874 1011 ft 6 kts 109°
2026-05-05 13:07 53.80258 86.86958 1009 ft 8 kts 136°
2026-05-05 13:07 53.80180 86.87040 1003 ft 19 kts 151°
2026-05-05 13:08 53.80107 86.87134 998 ft 11 kts 104°
2026-05-05 13:08 53.80150 86.87199 1002 ft 6 kts 19°
2026-05-05 13:08 53.80175 86.87215 1003 ft 2 kts 19°
2026-05-05 13:08 53.80278 86.87275 1008 ft 35 kts 20°
2026-05-05 13:09 53.80657 86.87510 1013 ft 82 kts 20°
2026-05-05 13:09 53.81358 86.87936 1021 ft 131 kts 19°
2026-05-05 13:09 53.82378 86.88545 1370 ft 164 kts 19°
2026-05-05 13:09 53.83416 86.89163 2099 ft 161 kts 20°
2026-05-05 13:10 53.84498 86.89838 2701 ft 170 kts 20°
2026-05-05 13:10 53.85619 86.90541 3307 ft 181 kts 17°
2026-05-05 13:10 53.86979 86.91349 3254 ft 233 kts 18°
2026-05-05 13:10 53.88622 86.92359 2854 ft 269 kts 19°
2026-05-05 13:11 53.90429 86.93433 2428 ft 276 kts 15°
2026-05-05 13:11 53.92313 86.93451 2014 ft 267 kts 341°
2026-05-05 13:11 53.93921 86.92149 2119 ft 245 kts 329°
2026-05-05 13:11 53.95417 86.90852 2167 ft 238 kts 333°
2026-05-05 13:12 53.96969 86.89689 2182 ft 245 kts 334°
2026-05-05 13:12 53.98606 86.88493 2644 ft 265 kts 334°
2026-05-05 13:12 54.00270 86.87282 3867 ft 257 kts 333°
2026-05-05 13:12 54.01822 86.86165 5292 ft 239 kts 331°
2026-05-05 13:13 54.03316 86.85081 6405 ft 235 kts 330°
2026-05-05 13:13 54.04796 86.83999 7392 ft 234 kts 330°
2026-05-05 13:13 54.06273 86.82926 8384 ft 232 kts 331°
2026-05-05 13:13 54.07737 86.81867 9318 ft 232 kts 332°
2026-05-05 13:14 54.09196 86.80809 10250 ft 231 kts 332°
2026-05-05 13:14 54.10675 86.79733 11009 ft 236 kts 332°
2026-05-05 13:14 54.12221 86.78608 11790 ft 241 kts 333°
2026-05-05 13:14 54.13773 86.77480 12547 ft 245 kts 333°
2026-05-05 13:15 54.15353 86.76331 13285 ft 250 kts 333°
2026-05-05 13:15 54.16986 86.75142 14007 ft 254 kts 333°
2026-05-05 13:15 54.18604 86.73963 14709 ft 260 kts 333°
2026-05-05 13:15 54.20321 86.72708 15230 ft 273 kts 333°
2026-05-05 13:16 54.22115 86.71395 15709 ft 287 kts 333°
2026-05-05 13:16 54.23988 86.70025 16179 ft 301 kts 333°
2026-05-05 13:16 54.25972 86.68572 16621 ft 316 kts 333°
2026-05-05 13:16 54.28037 86.67059 17028 ft 330 kts 333°
2026-05-05 13:17 54.30206 86.65467 17383 ft 345 kts 333°
2026-05-05 13:17 54.32452 86.63818 17743 ft 360 kts 333°
2026-05-05 13:17 54.34830 86.62070 18097 ft 374 kts 333°
2026-05-05 13:17 54.37295 86.60256 18445 ft 388 kts 333°
2026-05-05 13:18 54.39822 86.58393 18685 ft 403 kts 333°
2026-05-05 13:18 54.42441 86.56464 19308 ft 409 kts 334°
2026-05-05 13:18 54.45056 86.54538 20077 ft 411 kts 333°
2026-05-05 13:18 54.47716 86.52578 20837 ft 412 kts 333°
2026-05-05 13:19 54.50404 86.50826 21455 ft 418 kts 338°
2026-05-05 13:19 54.53216 86.49300 22085 ft 423 kts 339°
2026-05-05 13:19 54.56034 86.47865 22773 ft 424 kts 340°
2026-05-05 13:19 54.58898 86.46420 23385 ft 427 kts 339°
2026-05-05 13:20 54.61750 86.44976 23991 ft 430 kts 339°
2026-05-05 13:20 54.64607 86.43515 24597 ft 432 kts 339°
2026-05-05 13:20 54.67503 86.42029 25086 ft 437 kts 339°
2026-05-05 13:20 54.70451 86.40512 25624 ft 441 kts 339°
2026-05-05 13:21 54.73399 86.38989 26309 ft 441 kts 339°
2026-05-05 13:21 54.76301 86.37489 27018 ft 439 kts 339°
2026-05-05 13:21 54.79245 86.35967 27753 ft 437 kts 339°
2026-05-05 13:21 54.82167 86.34450 28430 ft 436 kts 339°
2026-05-05 13:22 54.85090 86.32929 29141 ft 433 kts 339°
2026-05-05 13:22 54.87830 86.31501 29887 ft 429 kts 339°
2026-05-05 13:22 54.90732 86.29988 30612 ft 425 kts 339°
2026-05-05 13:22 54.93575 86.28503 31161 ft 425 kts 339°
2026-05-05 13:23 54.96433 86.27006 31582 ft 426 kts 339°
2026-05-05 13:23 54.99265 86.25520 32077 ft 426 kts 338°
2026-05-05 13:23 55.02124 86.24019 32580 ft 425 kts 338°
2026-05-05 13:23 55.04974 86.22520 32990 ft 421 kts 338°
2026-05-05 13:24 55.07780 86.21042 33439 ft 421 kts 338°
2026-05-05 13:24 55.10607 86.19544 33800 ft 422 kts 338°
2026-05-05 13:24 55.13445 86.18037 34154 ft 418 kts 338°
2026-05-05 13:24 55.16228 86.16563 34456 ft 413 kts 338°
2026-05-05 13:25 55.18889 86.15156 34927 ft 408 kts 338°
2026-05-05 13:25 55.21593 86.13729 35546 ft 400 kts 339°
2026-05-05 13:25 55.24308 86.12454 35894 ft 399 kts 341°
2026-05-05 13:25 55.27096 86.11612 35999 ft 408 kts 349°
2026-05-05 13:26 55.32878 86.11852 36032 ft 415 kts 358°
2026-05-05 13:26 55.38625 86.12830 36033 ft 415 kts 359°
2026-05-05 13:27 55.44356 86.13858 36032 ft 415 kts 359°
2026-05-05 13:27 55.50131 86.14894 36027 ft 415 kts 359°
2026-05-05 13:28 55.55875 86.15926 36027 ft 416 kts 359°
2026-05-05 13:28 55.61592 86.16958 36032 ft 413 kts 359°
2026-05-05 13:29 55.67301 86.17987 36025 ft 414 kts 359°
2026-05-05 13:29 55.73056 86.19027 36021 ft 417 kts 358°
2026-05-05 13:30 55.78862 86.20082 36018 ft 416 kts 358°
2026-05-05 13:30 55.84623 86.21130 36016 ft 416 kts 359°
2026-05-05 13:31 55.90367 86.22181 36018 ft 414 kts 358°
2026-05-05 13:31 55.96068 86.23225 36018 ft 414 kts 358°
2026-05-05 13:32 56.01833 86.24284 35991 ft 413 kts 359°
2026-05-05 13:32 56.07573 86.25337 35995 ft 417 kts 359°
2026-05-05 13:33 56.13372 86.26369 35986 ft 414 kts 358°
2026-05-05 13:33 56.19149 86.27363 35974 ft 414 kts 358°
2026-05-05 13:34 56.24855 86.28352 35984 ft 415 kts 358°
2026-05-05 13:34 56.30631 86.29356 35959 ft 416 kts 359°
2026-05-05 13:35 56.36390 86.30363 35971 ft 416 kts 359°
2026-05-05 13:35 56.42168 86.31377 35989 ft 418 kts 359°
2026-05-05 13:36 56.47942 86.32395 35975 ft 417 kts 359°
2026-05-05 13:36 56.53719 86.33417 35963 ft 416 kts 359°
2026-05-05 13:37 56.59448 86.34430 35981 ft 418 kts 358°
2026-05-05 13:37 56.65250 86.35460 35973 ft 417 kts 359°
2026-05-05 13:38 56.71018 86.36488 35954 ft 417 kts 359°
2026-05-05 13:38 56.76802 86.37521 35967 ft 419 kts 359°
2026-05-05 13:39 56.82562 86.38557 35953 ft 418 kts 359°
2026-05-05 13:39 56.88360 86.39600 35977 ft 419 kts 359°
2026-05-05 13:40 56.94127 86.40640 35951 ft 417 kts 359°
2026-05-05 13:40 56.99902 86.41688 35966 ft 419 kts 359°
2026-05-05 13:41 57.05715 86.42746 35948 ft 419 kts 359°
2026-05-05 13:41 57.11532 86.43812 35954 ft 420 kts 359°
2026-05-05 13:42 57.17409 86.44894 35954 ft 420 kts 359°
2026-05-05 13:42 57.23209 86.45964 35955 ft 419 kts 359°
2026-05-05 13:43 57.29018 86.47039 35943 ft 420 kts 359°
2026-05-05 13:43 57.34826 86.48114 35945 ft 421 kts 359°
2026-05-05 13:44 57.40659 86.49202 35947 ft 420 kts 359°
2026-05-05 13:44 57.46476 86.50288 35942 ft 421 kts 359°
2026-05-05 13:45 57.52299 86.51379 35941 ft 420 kts 359°
2026-05-05 13:45 57.58079 86.52464 35930 ft 423 kts 359°
2026-05-05 13:46 57.63955 86.53572 35931 ft 423 kts 359°
2026-05-05 13:46 57.69780 86.54675 35934 ft 421 kts 359°
2026-05-05 13:47 57.75624 86.55784 35932 ft 423 kts 359°
2026-05-05 13:47 57.81473 86.56898 35932 ft 423 kts 359°
2026-05-05 13:48 57.87355 86.58022 35937 ft 424 kts 360°
2026-05-05 13:48 57.93234 86.59151 35937 ft 423 kts 360°
2026-05-05 13:49 57.99085 86.60276 35935 ft 423 kts 360°
2026-05-05 13:49 58.04939 86.61405 35924 ft 424 kts 360°
2026-05-05 13:50 58.10842 86.62546 35931 ft 426 kts 360°
2026-05-05 13:50 58.16794 86.63702 35926 ft 423 kts 360°
2026-05-05 13:51 58.22661 86.64845 35917 ft 424 kts 360°
2026-05-05 13:51 58.28603 86.66004 35921 ft 427 kts
2026-05-05 13:52 58.34500 86.67161 35925 ft 427 kts
2026-05-05 13:52 58.40424 86.68328 35924 ft 427 kts
2026-05-05 13:53 58.45789 86.69389 35921 ft 428 kts
2026-05-05 13:53 58.51371 86.70494 35921 ft 427 kts
2026-05-05 13:54 58.57314 86.71673 36173 ft 430 kts
2026-05-05 13:54 58.60292 86.72264 36033 ft 428 kts
2026-05-05 13:54 58.63281 86.72865 35943 ft 424 kts
2026-05-05 13:55 58.69094 86.74198 35919 ft 425 kts
2026-05-05 13:55 58.74973 86.75691 35914 ft 429 kts
2026-05-05 13:56 58.80916 86.77205 35920 ft 428 kts
2026-05-05 13:56 58.86780 86.78694 35910 ft 427 kts
2026-05-05 13:57 58.92704 86.80194 35915 ft 428 kts
2026-05-05 13:57 58.98590 86.81686 35909 ft 428 kts
2026-05-05 13:58 59.04478 86.83185 35915 ft 429 kts
2026-05-05 13:58 59.10444 86.84704 35911 ft 430 kts
2026-05-05 13:59 59.19426 86.87007 35907 ft 429 kts
2026-05-05 14:00 59.28326 86.89288 35905 ft 430 kts
2026-05-05 14:00 59.34296 86.90790 35902 ft 431 kts
2026-05-05 14:01 59.40219 86.92285 35898 ft 431 kts
2026-05-05 14:01 59.46193 86.93800 35901 ft 431 kts
2026-05-05 14:02 59.52140 86.95315 35896 ft 430 kts
2026-05-05 14:02 59.58061 86.96825 35902 ft 431 kts
2026-05-05 14:03 59.64006 86.98350 35903 ft 432 kts
2026-05-05 14:03 59.69955 86.99880 35901 ft 433 kts
2026-05-05 14:04 59.75953 87.01430 35904 ft 432 kts
2026-05-05 14:04 59.81911 87.02978 35900 ft 431 kts
2026-05-05 14:05 59.87839 87.04520 35900 ft 432 kts
2026-05-05 14:05 59.93796 87.06077 35896 ft 433 kts
2026-05-05 14:06 59.99779 87.07645 35899 ft 433 kts
2026-05-05 14:06 60.05780 87.09224 35894 ft 435 kts
2026-05-05 14:07 60.11769 87.10807 35895 ft 434 kts
2026-05-05 14:07 60.17733 87.12388 35890 ft 433 kts
2026-05-05 14:08 60.23674 87.13969 35886 ft 434 kts
2026-05-05 14:08 60.29649 87.15564 35884 ft 435 kts
2026-05-05 14:09 60.35669 87.17177 35880 ft 435 kts
2026-05-05 14:09 60.41698 87.18800 35880 ft 436 kts
2026-05-05 14:10 60.47721 87.20426 35875 ft 436 kts
2026-05-05 14:10 60.53714 87.22051 35871 ft 434 kts
2026-05-05 14:11 60.59707 87.23679 35868 ft 436 kts
2026-05-05 14:11 60.65745 87.25329 35868 ft 435 kts
2026-05-05 14:12 60.71737 87.26971 35867 ft 437 kts
2026-05-05 14:12 60.77752 87.28625 35865 ft 437 kts
2026-05-05 14:13 60.83790 87.30293 35864 ft 436 kts
2026-05-05 14:13 60.89797 87.31959 35867 ft 437 kts
2026-05-05 14:14 60.95831 87.33637 35871 ft 437 kts
2026-05-05 14:14 61.01876 87.35326 35873 ft 437 kts
2026-05-05 14:15 61.07919 87.37020 35877 ft 438 kts
2026-05-05 14:15 61.14020 87.38738 35864 ft 439 kts
2026-05-05 14:16 61.20030 87.40436 35869 ft 438 kts
2026-05-05 14:16 61.26150 87.42173 35852 ft 438 kts
2026-05-05 14:17 61.32195 87.43894 35855 ft 439 kts
2026-05-05 14:17 61.38255 87.45626 35853 ft 439 kts
2026-05-05 14:18 61.44337 87.47371 35848 ft 440 kts
2026-05-05 14:18 61.50430 87.49127 35842 ft 440 kts
2026-05-05 14:19 61.56455 87.50870 35840 ft 440 kts
2026-05-05 14:19 61.62573 87.52646 35845 ft 440 kts
2026-05-05 14:20 61.68662 87.54421 35843 ft 440 kts
2026-05-05 14:20 61.74711 87.56194 35846 ft 440 kts
2026-05-05 14:21 61.80789 87.57983 35842 ft 441 kts
2026-05-05 14:21 61.86850 87.59774 35836 ft 441 kts
2026-05-05 14:22 61.92963 87.61584 35842 ft 442 kts
2026-05-05 14:22 61.99057 87.63400 35835 ft 442 kts
2026-05-05 14:23 62.05156 87.65224 35830 ft 442 kts
2026-05-05 14:23 62.11192 87.67035 35828 ft 443 kts
2026-05-05 14:24 62.17305 87.68880 35823 ft 444 kts
2026-05-05 14:24 62.23452 87.70744 35823 ft 443 kts
2026-05-05 14:25 62.29577 87.72604 35824 ft 443 kts
2026-05-05 14:25 62.35731 87.74480 35818 ft 444 kts
2026-05-05 14:26 62.41817 87.76346 35817 ft 444 kts
2026-05-05 14:26 62.47966 87.78239 35818 ft 445 kts
2026-05-05 14:27 62.54091 87.80135 35811 ft 446 kts
2026-05-05 14:27 62.60276 87.82053 35807 ft 445 kts
2026-05-05 14:28 62.66377 87.83956 35807 ft 446 kts
2026-05-05 14:28 62.72534 87.85883 35801 ft 447 kts
2026-05-05 14:29 62.78684 87.87817 35797 ft 447 kts
2026-05-05 14:29 62.84883 87.89775 35785 ft 449 kts
2026-05-05 14:30 62.91056 87.91734 35788 ft 448 kts
2026-05-05 14:30 62.97239 87.93700 35785 ft 449 kts
2026-05-05 14:31 63.03400 87.95672 35792 ft 448 kts
2026-05-05 14:31 63.09570 87.97654 35767 ft 448 kts
2026-05-05 14:32 63.15821 87.99493 35778 ft 446 kts 360°
2026-05-05 14:32 63.21907 87.99823 35771 ft 443 kts 355°
2026-05-05 14:33 63.28125 87.99693 35781 ft 444 kts 354°
2026-05-05 14:33 63.34319 87.99537 35775 ft 444 kts 354°
2026-05-05 14:34 63.40509 87.99383 35796 ft 444 kts 354°
2026-05-05 14:34 63.46692 87.99230 35788 ft 443 kts 354°
2026-05-05 14:35 63.52904 87.99075 35794 ft 444 kts 354°
2026-05-05 14:35 63.59105 87.98919 35785 ft 444 kts 354°
2026-05-05 14:36 63.65286 87.98763 35786 ft 445 kts 354°
2026-05-05 14:36 63.71471 87.98607 35784 ft 445 kts 354°
2026-05-05 14:37 63.77640 87.98452 35792 ft 446 kts 354°
2026-05-05 14:37 63.83854 87.98296 35788 ft 446 kts 354°
2026-05-05 14:38 63.90023 87.98139 35795 ft 445 kts 354°
2026-05-05 14:38 63.96235 87.97980 35807 ft 445 kts 354°
2026-05-05 14:39 64.02399 87.97820 35805 ft 446 kts 354°
2026-05-05 14:39 64.08628 87.97662 35792 ft 446 kts 354°
2026-05-05 14:40 64.14918 87.97500 35812 ft 447 kts 354°
2026-05-05 14:40 64.21178 87.97337 35796 ft 446 kts 354°
2026-05-05 14:41 64.27398 87.97171 35798 ft 448 kts 354°
2026-05-05 14:41 64.33609 87.97010 35801 ft 447 kts 354°
2026-05-05 14:42 64.39848 87.96845 35795 ft 447 kts 354°
2026-05-05 14:42 64.46089 87.96678 35806 ft 447 kts 354°
2026-05-05 14:43 64.52315 87.96511 35796 ft 448 kts 353°
2026-05-05 14:43 64.58586 87.96342 35794 ft 448 kts 353°
2026-05-05 14:44 64.64781 87.96178 35770 ft 446 kts 353°
2026-05-05 14:44 64.71027 87.96005 35794 ft 449 kts 353°
2026-05-05 14:45 64.77284 87.95838 35784 ft 448 kts 353°
2026-05-05 14:45 64.83495 87.95672 35773 ft 447 kts 353°
2026-05-05 14:46 64.89741 87.95499 35791 ft 448 kts 353°
2026-05-05 14:46 64.95961 87.95325 35780 ft 448 kts 353°
2026-05-05 14:47 65.02198 87.95152 35769 ft 449 kts 353°
2026-05-05 14:47 65.08476 87.94997 35791 ft 450 kts 353°
2026-05-05 14:48 65.14728 87.94878 35784 ft 448 kts 353°
2026-05-05 14:48 65.20967 87.94755 35782 ft 450 kts 353°
2026-05-05 14:49 65.26962 87.94634 35793 ft 450 kts 354°
2026-05-05 14:49 65.33341 87.94504 35783 ft 450 kts 354°
2026-05-05 14:50 65.39652 87.94373 35778 ft 452 kts 354°
2026-05-05 14:50 65.45956 87.94247 35796 ft 452 kts 354°
2026-05-05 14:51 65.52231 87.94124 35783 ft 452 kts 354°
2026-05-05 14:51 65.58503 87.93996 35797 ft 452 kts 354°
2026-05-05 14:52 65.64800 87.93865 35782 ft 453 kts 354°
2026-05-05 14:52 65.71098 87.93735 35783 ft 454 kts 354°
2026-05-05 14:53 65.77435 87.93604 35776 ft 453 kts 354°
2026-05-05 14:53 65.83768 87.93235 35777 ft 453 kts 352°
2026-05-05 14:54 65.90036 87.92264 35770 ft 451 kts 351°
2026-05-05 14:54 65.96266 87.91281 35750 ft 451 kts 351°
2026-05-05 14:55 66.02543 87.90322 35752 ft 453 kts 351°
2026-05-05 14:55 66.08872 87.89374 35748 ft 453 kts 351°
2026-05-05 14:56 66.15122 87.88444 35753 ft 453 kts 351°
2026-05-05 14:56 66.21252 87.87530 35737 ft 453 kts 351°
2026-05-05 14:57 66.27593 87.86576 35730 ft 455 kts 352°
2026-05-05 14:57 66.33860 87.85611 35727 ft 454 kts 351°
2026-05-05 14:58 66.40148 87.84637 35732 ft 454 kts 352°
2026-05-05 14:58 66.46470 87.83654 35728 ft 454 kts 352°
2026-05-05 14:59 66.52782 87.82665 35726 ft 455 kts 352°
2026-05-05 14:59 66.59109 87.81673 35724 ft 455 kts 352°
2026-05-05 15:00 66.64362 87.80845 35718 ft 454 kts 352°
2026-05-05 15:00 66.71689 87.79684 35705 ft 455 kts 352°
2026-05-05 15:01 66.78039 87.78670 35704 ft 457 kts 352°
2026-05-05 15:01 66.84353 87.77660 35693 ft 455 kts 352°
2026-05-05 15:02 66.90696 87.76640 35690 ft 457 kts 352°
2026-05-05 15:02 66.96976 87.75626 35706 ft 457 kts 352°
2026-05-05 15:03 67.03308 87.74594 35704 ft 457 kts 352°
2026-05-05 15:03 67.09677 87.73521 35713 ft 456 kts 352°
2026-05-05 15:04 67.15976 87.72387 35702 ft 458 kts 352°
2026-05-05 15:04 67.22230 87.71258 35697 ft 458 kts 352°
2026-05-05 15:05 67.31744 87.69539 35693 ft 458 kts 352°
2026-05-05 15:06 67.38051 87.68392 35680 ft 459 kts 352°
2026-05-05 15:06 67.44455 87.67226 35681 ft 458 kts 352°
2026-05-05 15:07 67.50766 87.66068 35681 ft 458 kts 352°
2026-05-05 15:07 67.57121 87.64896 35665 ft 459 kts 352°
2026-05-05 15:08 67.63508 87.63711 35663 ft 458 kts 352°
2026-05-05 15:08 67.69840 87.62530 35662 ft 458 kts 352°
2026-05-05 15:09 67.76169 87.61343 35659 ft 458 kts 352°
2026-05-05 15:09 67.82531 87.60143 35642 ft 459 kts 352°
2026-05-05 15:10 67.88899 87.58936 35650 ft 459 kts 352°
2026-05-05 15:10 67.95263 87.57725 35636 ft 460 kts 352°
2026-05-05 15:11 68.01644 87.56503 35632 ft 460 kts 352°
2026-05-05 15:11 68.04823 87.55894 35473 ft 460 kts 352°
2026-05-05 15:11 68.07995 87.55282 34881 ft 460 kts 352°
2026-05-05 15:11 68.11198 87.54666 34215 ft 460 kts 352°
2026-05-05 15:12 68.14350 87.54053 33416 ft 464 kts 352°
2026-05-05 15:12 68.17566 87.53425 32692 ft 466 kts 352°
2026-05-05 15:12 68.20705 87.52811 32073 ft 467 kts 352°
2026-05-05 15:12 68.23920 87.52183 31424 ft 469 kts 352°
2026-05-05 15:13 68.27145 87.51550 30733 ft 470 kts 352°
2026-05-05 15:13 68.30186 87.50952 30212 ft 467 kts 352°
2026-05-05 15:13 68.33387 87.50327 29727 ft 462 kts 351°
2026-05-05 15:13 68.36578 87.49702 29222 ft 458 kts 351°
2026-05-05 15:14 68.39730 87.49082 28731 ft 454 kts 352°
2026-05-05 15:14 68.42849 87.48464 28252 ft 450 kts 352°
2026-05-05 15:14 68.45943 87.47849 27750 ft 446 kts 352°
2026-05-05 15:14 68.49043 87.47229 27258 ft 442 kts 352°
2026-05-05 15:15 68.52082 87.46619 26764 ft 438 kts 352°
2026-05-05 15:15 68.55084 87.46015 26251 ft 434 kts 352°
2026-05-05 15:15 68.58095 87.45408 25774 ft 430 kts 352°
2026-05-05 15:15 68.61064 87.44808 25288 ft 426 kts 352°
2026-05-05 15:16 68.64006 87.44212 24793 ft 422 kts 352°
2026-05-05 15:16 68.66900 87.43624 24282 ft 417 kts 352°
2026-05-05 15:16 68.69752 87.43044 23734 ft 413 kts 352°
2026-05-05 15:16 68.72578 87.42465 23237 ft 407 kts 353°
2026-05-05 15:17 68.75388 87.41889 22674 ft 402 kts 353°
2026-05-05 15:17 68.78148 87.41321 22092 ft 399 kts 353°
2026-05-05 15:17 68.80903 87.40754 21499 ft 395 kts 353°
2026-05-05 15:17 68.83624 87.40215 20971 ft 390 kts 354°
2026-05-05 15:18 68.86306 87.39945 20393 ft 387 kts 357°
2026-05-05 15:18 68.88995 87.40295 19830 ft 384 kts
2026-05-05 15:18 68.91609 87.41348 19272 ft 381 kts
2026-05-05 15:18 68.94210 87.42664 18673 ft 377 kts
2026-05-05 15:19 68.96764 87.44027 18081 ft 373 kts
2026-05-05 15:19 68.99289 87.45393 17505 ft 368 kts
2026-05-05 15:19 69.01786 87.46749 16940 ft 363 kts
2026-05-05 15:19 69.04237 87.48088 16707 ft 349 kts
2026-05-05 15:20 69.06566 87.49367 16568 ft 334 kts
2026-05-05 15:20 69.08804 87.50603 16444 ft 320 kts
2026-05-05 15:20 69.10931 87.52120 16326 ft 308 kts 15°
2026-05-05 15:20 69.12917 87.54064 16076 ft 301 kts 18°
2026-05-05 15:21 69.14875 87.56172 15678 ft 299 kts 18°
2026-05-05 15:21 69.16799 87.58279 15264 ft 297 kts 18°
2026-05-05 15:21 69.18727 87.60397 14873 ft 294 kts 18°
2026-05-05 15:21 69.20219 87.62035 14559 ft 293 kts 18°
2026-05-05 15:22 69.22113 87.64121 14152 ft 291 kts 18°
2026-05-05 15:22 69.24012 87.66217 13754 ft 289 kts 18°
2026-05-05 15:22 69.25844 87.68242 13365 ft 287 kts 18°
2026-05-05 15:22 69.27718 87.70317 12987 ft 284 kts 18°
2026-05-05 15:23 69.29419 87.72207 12636 ft 282 kts 18°
2026-05-05 15:23 69.31266 87.74260 12243 ft 280 kts 18°
2026-05-05 15:23 69.33068 87.76266 11885 ft 277 kts 18°
2026-05-05 15:23 69.34840 87.78242 11522 ft 274 kts 18°
2026-05-05 15:24 69.36594 87.80209 11391 ft 261 kts 18°
2026-05-05 15:24 69.38230 87.82025 11325 ft 244 kts 16°
2026-05-05 15:24 69.39839 87.82922 11176 ft 224 kts 357°
2026-05-05 15:24 69.41291 87.82203 11056 ft 207 kts 338°
2026-05-05 15:25 69.42547 87.80441 10913 ft 193 kts 323°
2026-05-05 15:25 69.43457 87.77945 10841 ft 177 kts 307°
2026-05-05 15:25 69.44118 87.75061 10631 ft 171 kts 302°
2026-05-05 15:25 69.44750 87.72186 10251 ft 173 kts 303°
2026-05-05 15:26 69.45396 87.69332 9978 ft 171 kts 303°
2026-05-05 15:26 69.45991 87.66369 9485 ft 179 kts 294°
2026-05-05 15:26 69.46096 87.62753 8832 ft 197 kts 261°
2026-05-05 15:26 69.45425 87.59170 8034 ft 219 kts 234°
2026-05-05 15:27 69.44178 87.56456 7238 ft 238 kts 216°
2026-05-05 15:27 69.42741 87.54047 6438 ft 247 kts 216°
2026-05-05 15:27 69.41347 87.51592 5916 ft 222 kts 218°
2026-05-05 15:27 69.40118 87.49546 5596 ft 195 kts 218°
2026-05-05 15:28 69.38949 87.47444 4739 ft 196 kts 220°
2026-05-05 15:28 69.37882 87.45564 4425 ft 174 kts 223°
2026-05-05 15:28 69.36862 87.43687 3599 ft 183 kts 223°
2026-05-05 15:28 69.35776 87.41676 2552 ft 190 kts 223°
2026-05-05 15:29 69.34681 87.39624 1472 ft 198 kts 222°
2026-05-05 15:29 69.33592 87.37524 1023 ft 171 kts 222°
2026-05-05 15:29 69.32657 87.36066 1065 ft 145 kts 218°
2026-05-05 15:29 69.31818 87.34491 609 ft 139 kts 220°
2026-05-05 15:30 69.31081 87.33134 590 ft 104 kts 216°
2026-05-05 15:30 69.30655 87.32381 590 ft 43 kts 211°
2026-05-05 15:30 69.30432 87.31982 590 ft 38 kts 212°
2026-05-05 15:30 69.30209 87.31576 590 ft 38 kts 213°
2026-05-05 15:31 69.29980 87.31168 590 ft 39 kts 212°
2026-05-05 15:31 69.29863 87.30834 590 ft 12 kts 246°
2026-05-05 15:31 69.29872 87.30710 590 ft 6 kts 313°
2026-05-05 15:31 69.29935 87.30563 590 ft 10 kts 321°
2026-05-05 15:32 69.29978 87.30463 590 ft 7 kts 321°
2026-05-05 15:32 69.30040 87.30360 590 ft 11 kts 342°
2026-05-05 15:32 69.30138 87.30460 590 ft 21 kts 34°
2026-05-05 15:32 69.30294 87.30759 590 ft 30 kts 32°
2026-05-05 15:33 69.30435 87.31016 590 ft 19 kts 34°
2026-05-05 15:33 69.30553 87.31233 590 ft 22 kts 32°
2026-05-05 15:33 69.30700 87.31503 590 ft 27 kts 32°
2026-05-05 15:33 69.30859 87.31785 590 ft 27 kts 31°
2026-05-05 15:34 69.31016 87.32077 590 ft 26 kts 31°
2026-05-05 15:34 69.31175 87.32356 590 ft 26 kts 32°
2026-05-05 15:34 69.31333 87.32638 590 ft 26 kts 32°
2026-05-05 15:34 69.31490 87.32913 590 ft 26 kts 28°
2026-05-05 15:35 69.31650 87.33185 590 ft 26 kts 32°
2026-05-05 15:35 69.31803 87.33467 590 ft 26 kts 31°
2026-05-05 15:35 69.31943 87.33725 590 ft 20 kts 32°
2026-05-05 15:35 69.32059 87.33936 590 ft 15 kts 32°
2026-05-05 15:36 69.32090 87.33991 590 ft 4 kts 31°
2026-05-05 15:36 69.32166 87.34126 589 ft 20 kts 31°
2026-05-05 15:36 69.32272 87.34314 590 ft 7 kts 32°
2026-05-05 15:36 69.32318 87.34398 590 ft 7 kts 32°
2026-05-05 15:37 69.32364 87.34467 590 ft 7 kts 11°
2026-05-05 15:37 69.32404 87.34401 590 ft 6 kts 305°
2026-05-05 15:37 69.32415 87.34354 590 ft 0 kts 304°